Meteo Giornale » Osservazioni meteo Francia » Chalons-Vatry
ore: 22:30 - Osservazioni Meteo Chalons-Vatry
Lat. 48° 47' N Lon. 4° 11' E Alt. 162 metri s.l.m.
17 °C
Sereno
Temp. 24 Ore
15 °C
24 °C
Ovest
11.1 Km/h
Dew point 12 °C
Umidità 72 %
Visibilità 10 Km
Il sole sorge alle ore 06:58
Il sole tramonta alle ore 20:28
| Data e Ora | Cielo e Fenomeni | T °C | DP °C | Um. % | Pres. hPa | Vis. km | Vento km/h | |
|---|---|---|---|---|---|---|---|---|
| Oggi h: 22:30 | Sereno | 17 | 12 | 72 | 1020 | 10 | O 11.1 | |
| Oggi h: 22:00 | Sereno | 18 | 12 | 67 | 1020 | 10 | O 11.1 | |
| Oggi h: 21:30 | Sereno | 18 | 12 | 67 | 1020 | 10 | O 13 | |
| Oggi h: 21:00 | Sereno | 19 | 12 | 63 | 1020 | 10 | O 13 | |
| Oggi h: 20:30 | Sereno | 19 | 12 | 63 | 1019 | 10 | O 14.8 | |
| Oggi h: 20:00 | Sereno | 20 | 13 | 64 | 1019 | 10 | O/NO 22.2 | |
| Oggi h: 19:30 | Sereno | 21 | 13 | 60 | 1018 | 10 | O/NO 22.2 | |
| Oggi h: 19:00 | Sereno | 22 | 13 | 56 | 1018 | 10 | O/NO 22.2 | |
| Oggi h: 18:30 | Sereno | 22 | 13 | 56 | 1018 | 10 | O/NO 24 | |
| Oggi h: 18:00 | Sereno | 21 | 13 | 60 | 1018 | 10 | NO 29.6 | |
| Oggi h: 17:30 | Sereno | 21 | 13 | 60 | 1018 | 10 | O 40.7 | |
| Oggi h: 17:00 | Sereno | 24 | 12 | 47 | 1017 | 10 | O/SO 35.2 | |
| Oggi h: 16:30 | Sereno | 23 | 11 | 46 | 1017 | 10 | O 31.5 | |
| Oggi h: 16:00 | Molto Nuvoloso | 23 | 12 | 49 | 1017 | 10 | O 33.3 | |
| Oggi h: 15:30 | Molto Nuvoloso | 23 | 12 | 49 | 1017 | 10 | O/SO 35.2 | |
| Oggi h: 15:00 | Molto Nuvoloso | 23 | 12 | 49 | 1017 | 10 | O 37 | |
| Oggi h: 14:30 | Molto Nuvoloso | 23 | 13 | 53 | 1017 | 10 | O/SO 37 | |
| Oggi h: 14:00 | Molto Nuvoloso | 23 | 13 | 53 | 1017 | 10 | O/SO 37 | |
| Oggi h: 13:30 | Molto Nuvoloso | 22 | 13 | 56 | 1017 | 10 | O/SO 40.7 | |
| Oggi h: 13:00 | Poco Nuvoloso | 22 | 14 | 60 | 1016 | 10 | O/SO 35.2 | |
| Oggi h: 12:30 | Molto Nuvoloso | 22 | 15 | 64 | 1016 | 10 | O/SO 37 | |
| Oggi h: 12:00 | Molto Nuvoloso | 20 | 15 | 72 | 1016 | 10 | O/SO 35.2 | |
| Oggi h: 11:30 | Nuvoloso | 19 | 15 | 77 | 1016 | 10 | O/SO 31.5 | |
| Oggi h: 11:00 | Molto Nuvoloso | 17 | 16 | 93 | 1016 | 10 | O/SO 24 | |
| Oggi h: 10:30 | Molto Nuvoloso | 16 | 15 | 93 | 1016 | 3 | O/SO 37 | |
| Oggi h: 10:00 | Coperto | 18 | 15 | 82 | 1016 | 10 | SO 33.3 | |
| Oggi h: 09:30 | Coperto | 18 | 14 | 77 | 1016 | 10 | SO 35.2 | |
| Oggi h: 09:00 | Coperto | 18 | 15 | 82 | 1016 | 10 | SO 31.5 | |
| Oggi h: 08:30 | Molto Nuvoloso | 17 | 15 | 88 | 1016 | 10 | SO 22.2 | |
| Oggi h: 08:00 | Molto Nuvoloso | 17 | 15 | 88 | 1015 | 10 | SO 22.2 | |
| Oggi h: 07:30 | Molto Nuvoloso | 16 | 15 | 93 | 1015 | 10 | SO 22.2 | |
| Oggi h: 07:00 | Coperto | 16 | 15 | 93 | 1015 | 10 | S/SO 25.9 | |
| Oggi h: 06:30 | Coperto | 16 | 15 | 93 | 1015 | 10 | S/SO 24 | |
| Oggi h: 06:00 | Coperto | 16 | 14 | 87 | 1015 | 10 | S/SO 25.9 | |
| Oggi h: 05:30 | Coperto | 16 | 15 | 93 | 1015 | 10 | S/SO 24 | |
| Oggi h: 05:00 | Molto Nuvoloso | 16 | 14 | 87 | 1015 | 10 | S/SO 20.3 | |
| Oggi h: 04:30 | Molto Nuvoloso | 16 | 15 | 93 | 1015 | 10 | S/SO 22.2 | |
| Oggi h: 04:00 | Molto Nuvoloso | 15 | 14 | 93 | 1015 | 10 | S/SO 20.3 | |
| Oggi h: 03:30 | Nuvoloso | 15 | 14 | 93 | 1015 | 10 | SO 18.5 | |
| Oggi h: 03:00 | Poco Nuvoloso | 16 | 15 | 93 | 1015 | 10 | SO 20.3 | |
| Oggi h: 02:30 | Poco Nuvoloso | 16 | 15 | 93 | 1015 | 10 | S/SO 16.7 | |
| Oggi h: 02:00 | Poco Nuvoloso | 17 | 15 | 88 | 1014 | 10 | SO 24 | |
| Oggi h: 01:30 | Molto Nuvoloso | 17 | 16 | 93 | 1014 | 10 | SO 22.2 | |
| Oggi h: 01:00 | Molto Nuvoloso | 17 | 16 | 93 | 1014 | 10 | SO 24 | |
| Oggi h: 00:30 | Molto Nuvoloso | 17 | 16 | 93 | 1014 | 10 | SO 18.5 | |
| Oggi h: 00:00 | Molto Nuvoloso | 17 | 16 | 93 | 1014 | 10 | S/SO 18.5 | |
| Ieri h: 23:30 | Coperto | 17 | 16 | 93 | 1014 | 10 | S/SO 22.2 | |
| Ieri h: 23:00 | Coperto | 18 | 16 | 88 | 1014 | 10 | S/SO 22.2 | |



